Погода Земетчино

Погода Земетчино : погода сейчас, прогноз погоды и архив. Всё, что Вы хотите узнать о погоде Земетчино!

Поиск расширенной информации на нашем сайте:

Другие новости

Новости СМИ2

Главная страница сайта

Новости сайта

02.10.2013

Напоминаем, что на нашем новом сайте вы можете получить высокодетализированные прогнозы погоды по пунктам России, СНГ и мира (включающие важные для авиации метеовеличины, такие как направление и скорость ветра, видимость, явления погоды, количество и форма облачности, нижняя и верхняя граница облачности), а также ознакомиться с разнообразными материалами по авиационной метеорологии и подборкой полезных ссылок на эту тему.

Сайт Метеоцентр.Азия посвящён разработке технологий оптимизации авиаметеорологического обслуживания, включая проектирование и перспективное создание нескольких автоматизированных авиаметеорологических систем:
- система выпуска высокодетальных прогностических карт явлений погоды для нижнего воздушного пространства по России и ближнему зарубежью;
- система верификации прогнозов TAF (выпускаемых синоптиками официальных АМСГ РФ и ближнего зарубежья) и AUTOTAF (выпускаемых сайтом Метеоцентр.Азия) - выявление ошибок, онлайн-сопоставление с фактической погодой METAR, автоматическое внесение коррективов в прогнозы при резком отклонении фактической погоды от прогноза, подсчёт оправдываемости прогнозов по элементам и в целом;
- система обработки, анализа и отображения авиаметеорологической информации для применения провайдерами метеорологической информации.


Погода Земетчино - сегодня

Время (UTC), дата Ветер
(°,м/с) 
Видим.   Явления Облачность Т
(°С)
Тd
(°С)
f(%) Тe
(°С)
Pmin
(гПа)
dP
(гПа)
Po
(мм)
O2
(г/м3)
Тmin Tmax R s Состояние
почвы
06 21.03.17 150 (ЮВ) 20000 м    10/9 480 м 
[Sc]
+0.1 -1.3 90 -2  1015.3  749  302  -0.5         
09 21.03.17 140 (ЮВ) 20000 м    10/9 500 м 
[Sc]
+2.2 +0.6 89 +3  1015.7  0.5  749  299           
12 21.03.17 220 (ЮЗ) 20000 м    8/4 600 м верхняя 
[Sc diur, vesp|Cc]
+5.2 +2 80 +6  1015.5  749  296           
15 21.03.17 220 (ЮЗ) 20000 м    10/0 верхняя 
[Cs]
+3.6 +1.6 87 +4  1016.7  1.2  750  298    +6.1       
18 21.03.17 020 (С) 10 км    10/0 средняя 
[As op]
+1.2 -0.2 90 +2  1018  751  301           
21 21.03.17 190 (Ю) 10 км    10/10 300 м 
[St]
-0.2 -1.1 94 1018.5  0.5  752  303           
00 22.03.17 260 (З) 4000 м  дымка  ясно 
-2.2 -2.8 96 -2  1019.7  752  306           
03 22.03.17 170 (Ю) 10 км    ясно верхняя 
[Cs]
-2.4 -3 96 -2  1020.6  0.9  753  306  -2.4      мокрый или
старый снег
10-40% 
06 22.03.17 090 (В) 20000 м    6/0 верхняя 
[Ci sp]
+0.7 -0.4 92 +1  1021.4  0.9  754  303           
09 22.03.17 040 (СВ) 20000 м    4/0 верхняя 
[Ci sp]
+6.2 -0.9 60 +5  1020.7  -0.3  753  297           
12 22.03.17 040 (СВ) 20000 м    ясно 
+9.7 -1.7 45 +10  1019.9  -0.6  753  293           
15 22.03.17 050 (СВ) 20000 м    ясно 
+8.3 -3.9 42 +8  1019.8  -0.2  753  295    +11       
18 22.03.17 160 (Ю) 10 км    ясно 
+2.6 -3.3 65 +3  1021  0.9  753  301           
21 22.03.17 150 (ЮВ) 10 км    ясно 
+0 -2.4 84 +1  1021.4  0.2  754  304           
00 23.03.17 150 (ЮВ) 10 км    ясно 
-1.8 -2.7 94 -1  1021.4  -0.1  754  306           
03 23.03.17 140 (ЮВ) 10 км    9/6 600 м средняя 
[Sc diur, vesp|Ac lent]
-0.8 -2.4 89 -2  1020.9  -0.5  753  305  -2      мокрый или
старый снег
10-40% 
06 23.03.17 170 (Ю) 20000 м    9/0 средняя 
[Ac trans]
+1 -0.1 92 1020.1  -0.7  753  302           
09 23.03.17 180 (Ю) 20000 м    10/0 средняя 
[As op]
+3 -1.1 74 +2  1019.9  753  300           
12 23.03.17 260 (З) 4000 м  слаб. дождь  10/0 средняя 
[As op]
+5 +3.1 87 +6  1020.3  0.5  753  297           
15 23.03.17 340 (С) 20000 м  {дождь}  10/0 средняя 
[As op]
+5.8 +4.9 94 +6  1021.5  1.3  754  297    +6.5  0.0     
18 23.03.17 300 (СЗ) 10 км  {дождь}  ясно 
+3 +0.6 84 +4  1024  2.2  756  301           
21 23.03.17 тихо ()   10 км    ясно 
-2 -3.8 87 -2  1025.2  0.9  756  307           
00 24.03.17 150 (ЮВ) 10 км    ясно 
-2.2 -3.7 89 -2  1025.3  0.1  756  308           
03 24.03.17 160 (Ю) 10 км    4/0 верхняя 
[Ci sp]
-2.6 -3.3 95 -4  1025.5  0.1  756  308  -2.7      мокрый или
старый снег
10-40% 
06 24.03.17 тихо ()   20000 м    8/0 верхняя 
[Ci sp]
+2.8 +1 88 +3  1025.2  0.1  757  302           
Время (UTC), дата Ветер
(°,м/с) 
Видим.   Явления Облачность Т
(°С)
Тd
(°С)
f(%) Тe
(°С)
Pmin
(гПа)
dP
(гПа)
Po
(мм)
O2
(г/м3)
Тmin Tmax R s Состояние
почвы

Для получения пояснительной информации подведите курсор к названию столбца.

ПОГОДА Земетчино - архив

Всё, что Вы хотите узнать о погоде Земетчино - удобно и подробно!

Выберите нужную дату (начиная с 1 января 2015* года) и нажмите кнопку "Найти".
Будут отображены архивные сводки погоды по пункту Земетчино, начиная с указанной даты.


Отображать данные в формате CSV (для использования в таблицах Excel)


Внимание! Наш архив погоды предназначен исключительно для личного некоммерческого использования в познавательных целях. Если Вам необходимы официальные справки о состоянии погоды (для производственных, юридических, коммерческих и т.п. целей), обращайтесь в органы Росгидромета.

*Примечание: данная дата относится к архиву по метеостанциям СССР (Россия, СНГ, Балтия).
Архив по метеостанциям Зарубежной Европы и Азии (кроме Китая) хранится 10 дней, по другим регионам земного шара (Китай, Африка, Америка, Австралия, Океания) - 1 день.

Земетчино - район местоположения метеостанции


Название, широта, долгота, высота метеостанции:
Земетчино 53.5°ш. 42.6°д. 131 м над ур. моря [Российская Федерация]

Дополнительная информация

В oтличие oт бoльшинства пoгoдных сайтoв мы публикуем пoдрoбную метеoинфoрмацию в детальнoм прoфессиoнальнoм фoрмате.

Характеристики температуры и влажнoсти вoздуха измеряются на высoте 2 м в тени вдали oт зданий и деревьев.
Скoрoсть ветра измеряется на высoте 10 м (на урoвне рoста челoвека скoрoсть ветра ниже в 1.5-2 раза). Если метеoстанция нахoдится в гoрoде или в лесу, тo скoрoсть ветра занижена на 2-4 м/с пo сравнению с oткрытым местoм. Скoрoсть ветра над акватoриями крупных рек и oзёр, а также на вершинах хoлмoв на 2-5 м/с выше, чем в oбычных услoвиях.
Атмoсфернoе давление в разных тoчках местнoсти мoжет значительнo oтличаться oт давления на метеoстанции, в зависимoсти oт услoвий рельефа (при пoдъёме на 10 м давление пoнижается примернo на 1 мм рт.ст.).